"Period start","avg(HW err(1)/warn(2) (#))","avg(Visibility (m))","avg(Weather code (#))","avg(Precip intensity (mm/h))","min(HW err(1)/warn(2) (#))","max(HW err(1)/warn(2) (#))","std(HW err(1)/warn(2) (#))","med(HW err(1)/warn(2) (#))","min(Visibility (m))","max(Visibility (m))","std(Visibility (m))","med(Visibility (m))","min(Weather code (#))","max(Weather code (#))","std(Weather code (#))","med(Weather code (#))","min(Precip intensity (mm/h))","max(Precip intensity (mm/h))","std(Precip intensity (mm/h))","med(Precip intensity (mm/h))"
2013-09-27 00:00:00,2,50000,0,0.00,2,2,0,2,50000,50000,0,50000,0,0,0,0,0.00,0.00,0.00,0.00
2013-09-27 00:10:00,2,48877,0,0.00,2,2,0,2,42229,50000,2444,50000,0,0,0,0,0.00,0.00,0.00,0.00
2013-09-27 00:20:00,2,50000,0,0.00,2,2,0,2,50000,50000,0,50000,0,0,0,0,0.00,0.00,0.00,0.00
2013-09-27 00:30:00,2,50000,0,0.00,2,2,0,2,50000,50000,0,50000,0,0,0,0,0.00,0.00,0.00,0.00
2013-09-27 00:40:00,2,49973,0,0.00,2,2,0,2,49732,50000,80,50000,0,0,0,0,0.00,0.00,0.00,0.00
2013-09-27 00:50:00,2,49840,0,0.00,2,2,0,2,48398,50000,481,50000,0,0,0,0,0.00,0.00,0.00,0.00
2013-09-27 01:00:00,2,50000,0,0.00,2,2,0,2,50000,50000,0,50000,0,0,0,0,0.00,0.00,0.00,0.00
2013-09-27 01:10:00,2,49484,0,0.00,2,2,0,2,44837,50000,1549,50000,0,0,0,0,0.00,0.00,0.00,0.00
2013-09-27 01:20:00,2,49307,0,0.00,2,2,0,2,46763,50000,1053,50000,0,0,0,0,0.00,0.00,0.00,0.00
2013-09-27 01:30:00,2,50000,0,0.00,2,2,0,2,50000,50000,0,50000,0,0,0,0,0.00,0.00,0.00,0.00
2013-09-27 01:40:00,2,50000,0,0.00,2,2,0,2,50000,50000,0,50000,0,0,0,0,0.00,0.00,0.00,0.00
2013-09-27 01:50:00,2,49606,0,0.00,2,2,0,2,48499,50000,601,50000,0,0,0,0,0.00,0.00,0.00,0.00
2013-09-27 02:00:00,2,49763,0,0.00,2,2,0,2,48264,50000,534,50000,0,0,0,0,0.00,0.00,0.00,0.00
2013-09-27 02:10:00,2,49603,0,0.00,2,2,0,2,48532,50000,548,50000,0,0,0,0,0.00,0.00,0.00,0.00
2013-09-27 02:20:00,2,49337,0,0.00,2,2,0,2,45670,50000,1326,50000,0,0,0,0,0.00,0.00,0.00,0.00
2013-09-27 02:30:00,2,49769,0,0.00,2,2,0,2,47693,50000,692,50000,0,0,0,0,0.00,0.00,0.00,0.00
2013-09-27 02:40:00,2,49654,0,0.00,2,2,0,2,47020,50000,890,50000,0,0,0,0,0.00,0.00,0.00,0.00
2013-09-27 02:50:00,2,49774,0,0.00,2,2,0,2,47738,50000,679,50000,0,0,0,0,0.00,0.00,0.00,0.00
2013-09-27 03:00:00,2,49315,0,0.00,2,2,0,2,45338,50000,1477,50000,0,0,0,0,0.00,0.00,0.00,0.00
2013-09-27 03:10:00,2,49018,0,0.00,2,2,0,2,46654,50000,1212,49516,0,0,0,0,0.00,0.00,0.00,0.00
2013-09-27 03:20:00,2,48208,0,0.00,2,2,0,2,44823,50000,1889,48598,0,0,0,0,0.00,0.00,0.00,0.00
2013-09-27 03:30:00,2,47918,0,0.00,2,2,0,2,41714,50000,2958,49647,0,0,0,0,0.00,0.00,0.00,0.00
2013-09-27 03:40:00,2,49722,0,0.00,2,2,0,2,47975,50000,624,50000,0,0,0,0,0.00,0.00,0.00,0.00
2013-09-27 03:50:00,2,47132,0,0.00,2,2,0,2,38442,50000,4573,50000,0,0,0,0,0.00,0.00,0.00,0.00
2013-09-27 04:00:00,2,48535,0,0.00,2,2,0,2,43071,50000,2378,50000,0,0,0,0,0.00,0.00,0.00,0.00
2013-09-27 04:10:00,2,50000,0,0.00,2,2,0,2,50000,50000,0,50000,0,0,0,0,0.00,0.00,0.00,0.00
2013-09-27 04:20:00,2,50000,0,0.00,2,2,0,2,50000,50000,0,50000,0,0,0,0,0.00,0.00,0.00,0.00
2013-09-27 04:30:00,2,49919,0,0.00,2,2,0,2,49190,50000,243,50000,0,0,0,0,0.00,0.00,0.00,0.00
2013-09-27 04:40:00,2,48952,0,0.00,2,2,0,2,44750,50000,1953,50000,0,0,0,0,0.00,0.00,0.00,0.00
2013-09-27 04:50:00,2,45330,0,0.00,2,2,0,2,31847,50000,5773,48307,0,0,0,0,0.00,0.00,0.00,0.00
2013-09-27 05:00:00,2,49805,0,0.00,2,2,0,2,48451,50000,467,50000,0,0,0,0,0.00,0.00,0.00,0.00
2013-09-27 05:10:00,2,48906,0,0.00,2,2,0,2,41771,50000,2465,50000,0,0,0,0,0.00,0.00,0.00,0.00
2013-09-27 05:20:00,2,49586,0,0.00,2,2,0,2,47876,50000,829,50000,0,0,0,0,0.00,0.00,0.00,0.00
2013-09-27 05:30:00,2,49750,0,0.00,2,2,0,2,48697,50000,462,50000,0,0,0,0,0.00,0.00,0.00,0.00
2013-09-27 05:40:00,2,50000,0,0.00,2,2,0,2,50000,50000,0,50000,0,0,0,0,0.00,0.00,0.00,0.00
2013-09-27 05:50:00,2,49985,0,0.00,2,2,0,2,49881,50000,36,50000,0,0,0,0,0.00,0.00,0.00,0.00
2013-09-27 06:00:00,2,49517,0,0.00,2,2,0,2,47554,50000,844,50000,0,0,0,0,0.00,0.00,0.00,0.00
2013-09-27 06:10:00,2,46492,0,0.00,2,2,0,2,33822,50000,5894,50000,0,0,0,0,0.00,0.00,0.00,0.00
2013-09-27 06:20:00,2,50000,0,0.00,2,2,0,2,50000,50000,0,50000,0,0,0,0,0.00,0.00,0.00,0.00
2013-09-27 06:30:00,2,48834,0,0.00,2,2,0,2,43791,50000,2338,50000,0,0,0,0,0.00,0.00,0.00,0.00
2013-09-27 06:40:00,2,50000,0,0.00,2,2,0,2,50000,50000,0,50000,0,0,0,0,0.00,0.00,0.00,0.00
2013-09-27 06:50:00,2,49585,0,0.00,2,2,0,2,45847,50000,1246,50000,0,0,0,0,0.00,0.00,0.00,0.00
2013-09-27 07:00:00,2,48876,0,0.00,2,2,0,2,43613,50000,2006,50000,0,0,0,0,0.00,0.00,0.00,0.00
2013-09-27 07:10:00,2,49849,0,0.00,2,2,0,2,48486,50000,454,50000,0,0,0,0,0.00,0.00,0.00,0.00
2013-09-27 07:20:00,2,49891,0,0.00,2,2,0,2,49046,50000,285,50000,0,0,0,0,0.00,0.00,0.00,0.00
2013-09-27 07:30:00,2,50000,0,0.00,2,2,0,2,50000,50000,0,50000,0,0,0,0,0.00,0.00,0.00,0.00
2013-09-27 07:40:00,2,50000,0,0.00,2,2,0,2,50000,50000,0,50000,0,0,0,0,0.00,0.00,0.00,0.00
2013-09-27 07:50:00,2,50000,0,0.00,2,2,0,2,50000,50000,0,50000,0,0,0,0,0.00,0.00,0.00,0.00
2013-09-27 08:00:00,2,50000,0,0.00,2,2,0,2,50000,50000,0,50000,0,0,0,0,0.00,0.00,0.00,0.00
2013-09-27 08:10:00,2,50000,0,0.00,2,2,0,2,50000,50000,0,50000,0,0,0,0,0.00,0.00,0.00,0.00
2013-09-27 08:20:00,2,50000,0,0.00,2,2,0,2,50000,50000,0,50000,0,0,0,0,0.00,0.00,0.00,0.00
2013-09-27 08:30:00,2,50000,0,0.00,2,2,0,2,50000,50000,0,50000,0,0,0,0,0.00,0.00,0.00,0.00
2013-09-27 08:40:00,2,50000,0,0.00,2,2,0,2,50000,50000,0,50000,0,0,0,0,0.00,0.00,0.00,0.00
2013-09-27 08:50:00,2,50000,0,0.00,2,2,0,2,50000,50000,0,50000,0,0,0,0,0.00,0.00,0.00,0.00
2013-09-27 09:00:00,2,50000,0,0.00,2,2,0,2,50000,50000,0,50000,0,0,0,0,0.00,0.00,0.00,0.00
2013-09-27 09:10:00,2,50000,0,0.00,2,2,0,2,50000,50000,0,50000,0,0,0,0,0.00,0.00,0.00,0.00
2013-09-27 09:20:00,2,50000,0,0.00,2,2,0,2,50000,50000,0,50000,0,0,0,0,0.00,0.00,0.00,0.00
2013-09-27 09:30:00,2,50000,0,0.00,2,2,0,2,50000,50000,0,50000,0,0,0,0,0.00,0.00,0.00,0.00
2013-09-27 09:40:00,2,50000,0,0.00,2,2,0,2,50000,50000,0,50000,0,0,0,0,0.00,0.00,0.00,0.00
2013-09-27 09:50:00,2,50000,0,0.00,2,2,0,2,50000,50000,0,50000,0,0,0,0,0.00,0.00,0.00,0.00
2013-09-27 10:00:00,2,50000,0,0.00,2,2,0,2,50000,50000,0,50000,0,0,0,0,0.00,0.00,0.00,0.00
2013-09-27 10:10:00,2,50000,0,0.00,2,2,0,2,50000,50000,0,50000,0,0,0,0,0.00,0.00,0.00,0.00
2013-09-27 10:20:00,2,49929,0,0.00,2,2,0,2,49288,50000,214,50000,0,0,0,0,0.00,0.00,0.00,0.00
2013-09-27 10:30:00,2,50000,0,0.00,2,2,0,2,50000,50000,0,50000,0,0,0,0,0.00,0.00,0.00,0.00
2013-09-27 10:40:00,2,50000,0,0.00,2,2,0,2,50000,50000,0,50000,0,0,0,0,0.00,0.00,0.00,0.00
2013-09-27 10:50:00,2,50000,0,0.00,2,2,0,2,50000,50000,0,50000,0,0,0,0,0.00,0.00,0.00,0.00
2013-09-27 11:00:00,2,50000,0,0.00,2,2,0,2,50000,50000,0,50000,0,0,0,0,0.00,0.00,0.00,0.00
2013-09-27 11:10:00,2,50000,0,0.00,2,2,0,2,50000,50000,0,50000,0,0,0,0,0.00,0.00,0.00,0.00
2013-09-27 11:20:00,2,50000,0,0.00,2,2,0,2,50000,50000,0,50000,0,0,0,0,0.00,0.00,0.00,0.00
2013-09-27 11:30:00,2,50000,0,0.00,2,2,0,2,50000,50000,0,50000,0,0,0,0,0.00,0.00,0.00,0.00
2013-09-27 11:40:00,2,50000,0,0.00,2,2,0,2,50000,50000,0,50000,0,0,0,0,0.00,0.00,0.00,0.00
2013-09-27 11:50:00,2,50000,0,0.00,2,2,0,2,50000,50000,0,50000,0,0,0,0,0.00,0.00,0.00,0.00
2013-09-27 12:00:00,2,50000,0,0.00,2,2,0,2,50000,50000,0,50000,0,0,0,0,0.00,0.00,0.00,0.00
2013-09-27 12:10:00,2,50000,0,0.00,2,2,0,2,50000,50000,0,50000,0,0,0,0,0.00,0.00,0.00,0.00
2013-09-27 12:20:00,2,50000,0,0.00,2,2,0,2,50000,50000,0,50000,0,0,0,0,0.00,0.00,0.00,0.00
2013-09-27 12:30:00,2,50000,0,0.00,2,2,0,2,50000,50000,0,50000,0,0,0,0,0.00,0.00,0.00,0.00
2013-09-27 12:40:00,2,50000,0,0.00,2,2,0,2,50000,50000,0,50000,0,0,0,0,0.00,0.00,0.00,0.00
2013-09-27 12:50:00,2,47316,0,0.00,2,2,0,2,26146,50000,7113,50000,0,0,0,0,0.00,0.00,0.00,0.00
2013-09-27 13:00:00,2,25915,0,0.00,2,2,0,2,17958,40681,8161,21210,0,0,0,0,0.00,0.00,0.00,0.00
2013-09-27 13:10:00,2,47493,0,0.00,2,2,0,2,39700,50000,3839,49788,0,0,0,0,0.00,0.00,0.00,0.00
2013-09-27 13:20:00,2,47843,0,0.00,2,2,0,2,43143,50000,2902,49692,0,0,0,0,0.00,0.00,0.00,0.00
2013-09-27 13:30:00,2,45155,0,0.00,2,2,0,2,36080,50000,4218,46096,0,0,0,0,0.00,0.00,0.00,0.00
2013-09-27 13:40:00,2,41751,0,0.00,2,2,0,2,28005,50000,9010,46086,0,0,0,0,0.00,0.00,0.00,0.00
2013-09-27 13:50:00,2,47733,0,0.00,2,2,0,2,40542,50000,3122,49538,0,0,0,0,0.00,0.00,0.00,0.00
2013-09-27 14:00:00,2,34189,0,0.00,2,2,0,2,25259,45834,6077,33203,0,0,0,0,0.00,0.00,0.00,0.00
2013-09-27 14:10:00,2,49976,0,0.00,2,2,0,2,49755,50000,74,50000,0,0,0,0,0.00,0.00,0.00,0.00
2013-09-27 14:20:00,2,48596,0,0.00,2,2,0,2,41217,50000,2732,50000,0,0,0,0,0.00,0.00,0.00,0.00
2013-09-27 14:30:00,2,48650,0,0.00,2,2,0,2,38720,50000,3375,50000,0,0,0,0,0.00,0.00,0.00,0.00
2013-09-27 14:40:00,2,29872,0,0.00,2,2,0,2,19963,37580,4844,30136,0,0,0,0,0.00,0.00,0.00,0.00
2013-09-27 14:50:00,2,43270,0,0.00,2,2,0,2,34988,50000,6195,45369,0,0,0,0,0.00,0.00,0.00,0.00
2013-09-27 15:00:00,2,47808,0,0.00,2,2,0,2,42321,50000,3022,49940,0,0,0,0,0.00,0.00,0.00,0.00
2013-09-27 15:10:00,2,16387,38,0.00,2,2,0,2,9401,23508,4179,15833,0,77,28,41,0.00,0.00,0.00,0.00
2013-09-27 15:20:00,2,8366,65,0.06,2,2,0,2,5722,13352,2032,7820,41,77,16,74,0.00,0.15,0.05,0.08
2013-09-27 15:30:00,2,14160,53,0.01,2,2,0,2,3527,23754,6482,13328,0,77,35,74,0.00,0.05,0.02,0.00
2013-09-27 15:40:00,2,24343,0,0.00,2,2,0,2,11768,44571,11296,20360,0,0,0,0,0.00,0.00,0.00,0.00
2013-09-27 15:50:00,2,50000,0,0.00,2,2,0,2,50000,50000,0,50000,0,0,0,0,0.00,0.00,0.00,0.00
2013-09-27 16:00:00,2,50000,0,0.00,2,2,0,2,50000,50000,0,50000,0,0,0,0,0.00,0.00,0.00,0.00
2013-09-27 16:10:00,2,50000,0,0.00,2,2,0,2,50000,50000,0,50000,0,0,0,0,0.00,0.00,0.00,0.00
2013-09-27 16:20:00,2,50000,0,0.00,2,2,0,2,50000,50000,0,50000,0,0,0,0,0.00,0.00,0.00,0.00
2013-09-27 16:30:00,2,50000,0,0.00,2,2,0,2,50000,50000,0,50000,0,0,0,0,0.00,0.00,0.00,0.00
2013-09-27 16:40:00,2,50000,0,0.00,2,2,0,2,50000,50000,0,50000,0,0,0,0,0.00,0.00,0.00,0.00
2013-09-27 16:50:00,2,50000,0,0.00,2,2,0,2,50000,50000,0,50000,0,0,0,0,0.00,0.00,0.00,0.00
2013-09-27 17:00:00,2,50000,0,0.00,2,2,0,2,50000,50000,0,50000,0,0,0,0,0.00,0.00,0.00,0.00
2013-09-27 17:10:00,2,50000,0,0.00,2,2,0,2,50000,50000,0,50000,0,0,0,0,0.00,0.00,0.00,0.00
2013-09-27 17:20:00,2,50000,0,0.00,2,2,0,2,50000,50000,0,50000,0,0,0,0,0.00,0.00,0.00,0.00
2013-09-27 17:30:00,2,50000,0,0.00,2,2,0,2,50000,50000,0,50000,0,0,0,0,0.00,0.00,0.00,0.00
2013-09-27 17:40:00,2,50000,0,0.00,2,2,0,2,50000,50000,0,50000,0,0,0,0,0.00,0.00,0.00,0.00
2013-09-27 17:50:00,2,50000,0,0.00,2,2,0,2,50000,50000,0,50000,0,0,0,0,0.00,0.00,0.00,0.00
2013-09-27 18:00:00,2,50000,0,0.00,2,2,0,2,50000,50000,0,50000,0,0,0,0,0.00,0.00,0.00,0.00
2013-09-27 18:10:00,2,50000,0,0.00,2,2,0,2,50000,50000,0,50000,0,0,0,0,0.00,0.00,0.00,0.00
2013-09-27 18:20:00,2,50000,0,0.00,2,2,0,2,50000,50000,0,50000,0,0,0,0,0.00,0.00,0.00,0.00
2013-09-27 18:30:00,2,50000,0,0.00,2,2,0,2,50000,50000,0,50000,0,0,0,0,0.00,0.00,0.00,0.00
2013-09-27 18:40:00,2,50000,0,0.00,2,2,0,2,50000,50000,0,50000,0,0,0,0,0.00,0.00,0.00,0.00
2013-09-27 18:50:00,2,50000,0,0.00,2,2,0,2,50000,50000,0,50000,0,0,0,0,0.00,0.00,0.00,0.00
2013-09-27 19:00:00,2,49974,0,0.00,2,2,0,2,49745,50000,76,50000,0,0,0,0,0.00,0.00,0.00,0.00
2013-09-27 19:10:00,2,50000,0,0.00,2,2,0,2,50000,50000,0,50000,0,0,0,0,0.00,0.00,0.00,0.00
2013-09-27 19:20:00,2,50000,0,0.00,2,2,0,2,50000,50000,0,50000,0,0,0,0,0.00,0.00,0.00,0.00
2013-09-27 19:30:00,2,50000,0,0.00,2,2,0,2,50000,50000,0,50000,0,0,0,0,0.00,0.00,0.00,0.00
2013-09-27 19:40:00,2,50000,0,0.00,2,2,0,2,50000,50000,0,50000,0,0,0,0,0.00,0.00,0.00,0.00
2013-09-27 19:50:00,2,50000,0,0.00,2,2,0,2,50000,50000,0,50000,0,0,0,0,0.00,0.00,0.00,0.00
2013-09-27 20:00:00,2,50000,0,0.00,2,2,0,2,50000,50000,0,50000,0,0,0,0,0.00,0.00,0.00,0.00
2013-09-27 20:10:00,2,50000,0,0.00,2,2,0,2,50000,50000,0,50000,0,0,0,0,0.00,0.00,0.00,0.00
2013-09-27 20:20:00,2,50000,0,0.00,2,2,0,2,50000,50000,0,50000,0,0,0,0,0.00,0.00,0.00,0.00
2013-09-27 20:30:00,2,50000,0,0.00,2,2,0,2,50000,50000,0,50000,0,0,0,0,0.00,0.00,0.00,0.00
2013-09-27 20:40:00,2,50000,0,0.00,2,2,0,2,50000,50000,0,50000,0,0,0,0,0.00,0.00,0.00,0.00
2013-09-27 20:50:00,2,50000,0,0.00,2,2,0,2,50000,50000,0,50000,0,0,0,0,0.00,0.00,0.00,0.00
2013-09-27 21:00:00,2,50000,0,0.00,2,2,0,2,50000,50000,0,50000,0,0,0,0,0.00,0.00,0.00,0.00
2013-09-27 21:10:00,2,50000,0,0.00,2,2,0,2,50000,50000,0,50000,0,0,0,0,0.00,0.00,0.00,0.00
2013-09-27 21:20:00,2,50000,0,0.00,2,2,0,2,50000,50000,0,50000,0,0,0,0,0.00,0.00,0.00,0.00
2013-09-27 21:30:00,2,50000,0,0.00,2,2,0,2,50000,50000,0,50000,0,0,0,0,0.00,0.00,0.00,0.00
2013-09-27 21:40:00,2,50000,0,0.00,2,2,0,2,50000,50000,0,50000,0,0,0,0,0.00,0.00,0.00,0.00
2013-09-27 21:50:00,2,50000,0,0.00,2,2,0,2,50000,50000,0,50000,0,0,0,0,0.00,0.00,0.00,0.00
2013-09-27 22:00:00,2,49957,0,0.00,2,2,0,2,49566,50000,130,50000,0,0,0,0,0.00,0.00,0.00,0.00
2013-09-27 22:10:00,2,47729,0,0.00,2,2,0,2,41189,50000,2751,48936,0,0,0,0,0.00,0.00,0.00,0.00
2013-09-27 22:20:00,2,38984,51,0.02,2,2,0,2,29473,50000,8239,39018,0,77,28,71,0.00,0.05,0.02,0.00
2013-09-27 22:30:00,2,28743,73,0.02,2,2,0,2,11926,47692,12866,25487,71,77,3,71,0.00,0.10,0.03,0.00
2013-09-27 22:40:00,2,3761,71,1.36,2,2,0,2,1561,7776,2144,2779,71,71,0,71,0.30,3.70,1.11,0.93
2013-09-27 22:50:00,2,2631,71,0.81,2,2,0,2,2035,3586,479,2791,71,71,0,71,0.25,1.75,0.45,0.70
2013-09-27 23:00:00,2,7866,72,0.20,2,2,0,2,2017,15594,5540,5812,71,77,2,71,0.00,0.55,0.21,0.10
2013-09-27 23:10:00,2,8849,72,0.22,2,2,0,2,3050,24717,6707,5902,71,77,2,71,0.00,0.70,0.24,0.12
2013-09-27 23:20:00,2,36566,37,0.01,2,2,0,2,8423,50000,16173,47334,0,77,37,36,0.00,0.05,0.02,0.00
2013-09-27 23:30:00,2,46879,0,0.00,2,2,0,2,20375,50000,8847,50000,0,0,0,0,0.00,0.00,0.00,0.00
2013-09-27 23:40:00,2,5950,71,0.17,2,2,0,2,4451,7860,1144,5764,71,71,0,71,0.00,0.50,0.16,0.10
2013-09-27 23:50:00,2,6735,73,0.66,2,2,0,2,1120,17693,6401,2393,71,77,3,71,0.00,1.75,0.68,0.45
